RH
15 14 15 14 14 13 13 13 12 13 13 12 12 12 12 14 14 14 20 76 77 64 91 58 63 63 66 60 51 40 36 36 37 36 34 32 26 25 37 53 79 96 95
25 18 19 15 15 15 14 14 15 14 14 15 16 17 20 18 25 24 32 51 74 100 100 96 91 85 75 74 69 53 39 36 36 38 38 30 23 16 20 29 51 52 64
31 24 19 19 19 18 17 15 16 18 22 26 31 36 34 36 38 32 42 65 74 84 89 98 89 100 95 92 83 56 42 36 37 44 43 40 22 14 13 16 31 64 48
26 25 26 23 21 21 22 21 22 24 27 32 37 40 37 45 48 52 61 67 78 82 79 78 89 98 97 95 68 54 42 32 41 47 45 35 29 26 15 11 15 19 41
24 23 25 25 26 27 29 27 25 27 30 35 36 36 40 47 51 63 78 75 72 78 80 96 90 77 71 71 49 41 31 30 47 47 45 41 29 11 11 11 9 12 17
27 30 29 30 32 30 26 22 20 19 18 16 15 15 20 33 44 57 60 64 73 82 81 87 89 85 68 62 71 44 35 41 47 47 47 26 16 13 9 10 8 8 9
30 32 35 37 33 29 27 26 24 23 20 16 12 8 7 7 17 32 36 54 62 65 73 84 90 92 89 87 73 49 52 52 56 53 54 19 15 15 13 9 8 6 7
25 30 39 40 35 35 33 30 28 25 22 18 13 9 8 9 8 11 26 23 22 43 64 46 27 20 42 61 64 77 79 70 69 68 20 16 13 10 9 11 10 8 6
24 32 40 42 42 39 37 35 31 29 27 22 16 11 11 17 22 21 18 20 24 19 31 67 68 48 43 73 96 88 78 81 63 17 15 9 7 7 10 14 18 13 10
20 34 38 41 46 42 41 42 36 36 35 29 16 13 17 24 29 32 30 29 30 36 40 48 45 44 66 85 58 43 35 32 18 18 16 22 24 22 20 23 26 25 18
28 32 41 45 49 47 45 48 44 42 42 36 18 19 27 30 40 47 50 66 77 82 87 89 89 93 84 84 77 68 66 53 48 50 45 46 48 50 47 44 38 34 28
35 30 46 48 50 53 51 52 56 54 51 41 22 29 35 37 54 68 78 89 98 100 98 86 80 81 82 83 86 90 81 85 86 83 96 100 100 100 97 90 78 66 51
45 31 31 42 53 59 62 61 63 64 56 39 28 40 46 51 65 76 84 91 96 98 97 96 84 69 58 60 65 60 76 78 78 81 91 99 100 100 100 100 100 100 100
64 61 45 41 59 69 70 76 73 71 58 34 40 49 57 66 73 78 86 93 95 93 92 63 30 18 11 11 11 11 12 16 36 40 43 66 72 82 88 97 100 100 100
74 69 52 56 70 79 87 87 81 74 58 36 47 58 70 75 78 84 91 86 65 25 12 12 12 11 10 10 9 8 8 8 8 8 8 8 10 10 26 62 74 92 98
84 64 61 66 76 93 98 94 85 71 49 46 57 70 75 79 85 88 82 49 44 20 13 12 10 8 7 6 6 6 5 5 4 4 4 4 4 4 6 7 7 26 55
72 60 61 65 86 100 98 97 87 66 48 55 69 75 79 84 63 65 24 16 15 14 11 10 9 8 8 7 7 6 6 5 5 4 4 4 3 3 3 3 3 4 5
63 61 54 60 92 100 97 96 78 60 56 67 75 79 71 68 34 24 22 16 13 11 10 9 9 9 8 7 7 6 5 5 4 4 3 3 3 2 2 2 2 2 2
62 56 57 76 100 98 97 95 73 55 67 74 77 50 13 12 20 17 16 13 12 11 10 9 9 9 8 8 7 6 6 5 5 4 4 4 3 3 3 2 2 2 2
70 66 74 91 100 96 96 92 60 66 75 80 60 21 12 17 18 15 13 12 12 11 11 11 10 10 9 9 8 8 7 7 6 6 6 5 5 4 4 4 4 3 3
69 84 93 96 97 96 94 80 68 75 79 72 24 12 18 18 16 23 14 14 13 13 12 12 11 11 10 10 10 9 8 8 8 7 7 6 6 5 5 4 4 4 4
72 78 86 97 96 96 93 72 77 82 76 23 13 17 19 17 17 18 17 16 15 14 14 13 12 12 12 12 12 11 10 9 8 8 7 7 6 6 5 5 5 5 4
67 77 95 96 96 94 80 78 84 83 65 18 16 20 18 19 21 22 22 20 18 16 14 13 13 13 13 13 12 10 10 10 9 8 8 7 6 6 5 5 5 5 4
70 84 98 98 96 94 79 86 88 85 31 15 20 19 19 23 26 27 27 25 21 18 16 15 16 15 15 14 12 12 11 10 8 8 7 6 6 6 6 5 5 4 4
58 88 100 99 98 87 87 94 88 41 17 20 20 19 23 27 30 31 30 27 23 20 18 18 17 16 16 16 15 13 12 10 9 8 7 7 6 6 5 5 5 4 4
72 98 100 98 96 92 95 96 72 13 19 21 19 21 24 29 33 34 33 30 26 22 21 20 19 19 18 16 13 12 10 8 8 7 7 6 6 5 5 4 4 4 4
Wind_Speed
25 22 22 22 24 25 26 26 27 27 26 27 28 29 31 33 35 38 39 38 39 43 41 45 41 41 38 37 37 35 34 32 32 36 39 39 40 37 40 40 43 54 44
22 22 22 26 23 24 25 27 27 28 29 29 29 29 29 34 33 38 39 41 41 39 40 42 40 41 40 40 39 39 37 34 33 36 39 41 37 38 38 41 41 47 44
21 24 24 22 26 26 25 26 26 26 27 27 27 26 28 32 31 36 37 37 39 42 39 34 40 39 40 41 40 40 40 38 32 31 38 41 42 40 35 37 34 26 36
21 22 23 25 24 22 22 23 23 21 20 20 22 24 28 30 31 32 32 34 33 33 34 40 40 35 39 40 40 40 39 39 36 32 34 39 41 40 43 35 35 35 35
19 22 23 21 21 20 19 19 18 17 17 17 19 20 21 22 26 29 31 31 33 33 35 34 33 36 36 37 38 38 37 37 38 36 36 39 40 38 41 43 37 36 37
18 19 19 18 19 18 18 17 18 18 19 21 21 21 23 22 22 22 25 30 36 38 38 36 38 36 38 38 39 39 37 34 38 38 38 41 41 40 38 39 39 39 35
16 18 17 18 18 15 16 17 19 20 22 24 25 25 25 25 25 23 22 22 24 29 34 35 35 35 40 43 46 43 42 45 45 48 46 44 45 43 41 40 38 38 38
16 19 18 19 18 17 17 19 21 22 23 25 26 27 27 26 26 26 25 25 25 26 27 26 23 27 33 40 45 48 51 51 44 42 46 44 45 45 43 41 40 38 38
17 18 20 20 20 19 18 19 21 23 24 26 27 27 27 26 25 25 26 26 26 25 26 24 22 26 30 33 27 31 30 34 38 42 43 43 43 44 41 38 38 38 40
14 19 23 22 22 21 20 21 22 23 25 27 28 26 26 25 25 25 25 24 23 22 22 23 21 24 28 24 24 26 28 29 30 34 36 38 36 36 36 35 35 35 38
15 20 25 26 24 23 23 23 23 24 25 27 27 26 25 24 24 23 23 20 19 18 16 14 13 14 16 21 22 18 18 23 26 27 31 32 31 29 29 30 30 32 35
17 20 25 28 27 25 26 25 24 25 26 27 27 25 22 22 21 20 19 18 16 14 7 4 7 9 8 8 10 8 6 8 12 16 19 20 19 21 22 24 24 26 30
15 16 23 29 31 26 26 27 26 25 26 26 25 23 20 20 18 17 16 17 17 13 8 3 3 6 9 9 9 11 11 13 14 14 13 13 16 20 20 21 21 21 23
23 22 25 31 32 26 27 27 26 25 26 26 24 20 18 18 16 16 15 14 12 9 6 5 4 4 4 6 8 9 10 10 11 12 13 12 13 14 15 13 20 26 25
29 29 26 29 27 26 28 26 25 24 25 23 21 18 16 16 15 14 13 9 6 7 7 6 6 6 6 7 8 9 10 10 12 12 14 15 14 15 16 15 16 16 16
32 27 26 28 24 28 26 25 24 22 22 20 17 15 15 13 12 11 8 5 6 9 9 8 8 7 7 7 8 9 10 11 11 12 13 15 16 17 17 18 18 15 15
28 23 25 27 25 26 26 21 19 20 19 17 14 13 13 11 8 6 6 8 9 9 8 8 7 8 8 9 9 9 10 11 11 12 13 13 14 15 16 18 18 19 20
27 27 28 25 25 26 21 15 17 17 16 13 11 10 6 5 5 6 9 9 8 8 7 6 7 8 9 10 12 12 12 12 12 12 12 13 13 13 14 15 17 18 19
31 32 29 26 23 22 20 14 14 14 12 10 8 5 5 6 8 9 9 9 8 7 6 6 7 8 10 11 13 14 14 15 15 15 14 14 14 14 15 15 15 17 19
31 29 25 22 26 21 15 11 13 12 10 9 8 7 7 6 7 7 8 7 7 6 6 7 8 9 11 13 14 14 15 16 17 17 17 17 17 15 14 14 14 15 14
23 23 22 23 20 17 14 13 12 11 10 10 9 8 7 6 7 8 8 7 7 7 8 8 10 12 13 15 16 17 17 16 17 17 18 18 18 18 18 19 19 20 22
20 21 23 23 18 15 13 13 12 11 11 10 9 8 7 7 7 7 8 7 7 8 9 10 12 14 15 16 17 17 18 19 18 18 19 20 21 22 22 23 25 26 27
19 17 19 19 17 16 14 13 13 13 12 10 9 8 8 7 6 7 8 8 8 9 10 10 11 12 14 15 16 17 18 19 20 21 22 23 23 24 25 26 27 28 28
19 20 22 22 18 16 15 14 15 14 13 10 8 7 7 7 6 7 8 9 9 10 10 11 12 13 14 15 17 18 19 19 20 21 21 22 23 25 27 27 28 29 31
19 21 22 22 19 16 15 17 17 15 13 11 8 7 6 6 7 8 9 10 11 11 12 12 13 14 15 18 21 22 23 23 23 24 25 27 28 29 30 31 33 34 34
20 20 22 21 18 18 19 20 17 15 13 10 8 7 7 5 7 9 9 10 12 13 15 16 17 18 20 21 22 22 22 23 24 24 25 26 27 29 31 32 33 34 34
Wind_Direction
287 288 289 287 290 295 294 293 294 294 290 285 281 276 272 268 266 265 263 258 263 261 260 263 261 262 262 261 258 259 262 268 276 280 278 277 277 275 269 266 261 270 273
282 292 295 297 298 295 294 295 295 293 291 288 283 279 275 272 265 263 264 261 259 258 260 262 262 261 261 261 261 261 261 265 273 283 289 286 274 273 267 269 271 268 272
281 291 292 297 296 298 301 300 301 301 300 296 291 287 285 282 278 271 266 267 266 260 266 272 263 261 261 259 259 262 266 267 266 277 287 290 289 288 278 274 272 276 269
270 277 291 294 298 302 304 302 302 301 302 308 304 297 297 288 286 282 272 267 269 273 273 269 269 270 266 262 260 260 264 266 267 271 282 287 288 289 286 275 271 266 266
274 281 286 291 298 301 301 301 301 302 305 312 316 318 318 310 293 284 277 273 272 276 279 277 272 267 267 262 260 260 261 264 270 276 279 279 278 283 282 284 274 263 261
267 272 274 280 283 286 291 296 303 310 315 318 318 318 316 316 316 307 296 286 278 272 274 275 274 272 268 267 262 265 266 267 270 276 288 284 279 277 276 274 278 272 257
274 270 266 268 272 280 288 296 305 311 315 317 320 322 319 314 313 313 314 308 302 289 280 279 280 280 274 269 264 261 264 264 267 266 278 277 278 277 277 276 273 269 264
277 270 262 263 267 278 289 299 303 309 314 318 321 322 321 319 314 310 307 307 307 303 303 285 296 290 291 283 270 263 263 260 267 270 270 275 276 276 276 274 275 272 266
278 269 262 266 272 281 292 300 303 308 314 319 322 323 321 320 319 316 311 305 303 300 294 293 298 297 293 298 284 272 272 264 260 265 272 276 276 273 272 270 270 271 270
278 270 265 266 270 279 289 294 298 306 314 321 324 322 319 319 321 320 316 309 303 301 300 291 293 287 294 299 283 270 261 259 265 268 274 276 274 272 272 271 269 269 270
287 273 266 264 269 275 281 289 295 302 312 318 322 321 320 319 322 321 317 313 309 308 306 307 314 302 300 283 275 272 280 272 271 276 276 278 279 279 276 273 270 269 269
281 273 269 270 271 271 276 282 291 301 311 317 321 320 319 317 319 318 315 313 307 300 292 333 5 13 351 356 6 2 326 316 300 287 291 296 302 300 293 285 280 275 270
288 291 283 273 269 267 276 279 287 299 308 315 318 316 315 313 314 314 312 309 299 280 264 284 327 335 332 342 5 6 16 15 14 8 2 338 310 296 291 287 282 278 275
274 285 283 272 265 267 275 280 287 296 307 314 315 315 310 308 310 310 309 306 300 308 324 323 299 292 317 333 352 351 4 359 357 354 358 359 357 6 6 330 288 274 273
264 285 282 276 267 272 274 280 283 295 305 311 312 308 305 306 309 308 305 305 307 307 296 302 314 320 329 339 342 345 347 343 341 344 343 341 344 350 349 352 1 350 311
261 274 269 271 272 274 270 274 280 292 303 308 305 302 300 304 305 300 302 308 310 297 305 315 327 331 340 348 359 357 356 351 348 344 342 341 339 336 334 333 338 337 339
268 275 268 273 273 271 265 263 277 292 301 302 296 294 295 296 296 300 297 296 289 295 305 319 334 344 351 355 2 1 357 353 350 347 343 343 342 340 338 334 335 333 329
283 286 282 281 273 266 253 261 280 293 295 289 287 285 291 286 281 295 301 300 296 301 306 322 337 345 354 357 358 358 358 356 353 354 351 351 351 348 342 338 337 334 330
274 276 281 270 264 252 247 261 282 290 282 274 271 251 272 285 287 300 300 299 300 302 312 328 348 353 354 356 355 355 355 354 355 355 355 354 355 352 349 345 342 340 339
276 272 269 266 258 244 246 273 281 275 261 250 235 257 273 285 292 301 303 302 305 311 326 340 348 351 352 351 348 347 347 348 346 345 347 346 343 343 342 341 340 342 341
268 258 256 263 238 250 264 266 263 253 242 231 241 255 267 275 283 287 293 296 305 322 330 340 347 351 350 347 343 342 339 337 336 338 337 334 334 335 336 335 339 339 342
262 254 253 248 233 252 252 250 246 236 223 225 235 252 262 268 279 290 297 307 319 326 336 344 347 347 344 342 340 338 336 336 334 333 332 332 332 333 333 337 339 340 340
257 244 245 240 257 251 245 242 233 220 217 224 233 245 258 272 289 299 304 313 323 332 337 340 337 334 336 338 340 339 338 336 335 335 334 334 333 333 334 334 334 333 330
249 243 240 237 243 239 239 230 220 214 215 222 229 242 261 276 291 306 311 317 325 329 328 327 328 329 333 338 338 337 338 340 340 338 335 333 333 333 334 332 329 328 328
251 237 232 235 236 236 229 219 211 210 214 218 223 242 261 282 299 310 318 325 328 327 323 323 323 328 335 338 339 339 337 338 339 339 338 337 335 335 332 330 328 327 328
244 231 230 232 233 230 222 211 206 208 211 213 224 244 266 281 302 316 323 328 328 324 323 324 329 336 339 340 337 334 336 337 337 337 335 333 332 332 331 331 331 330 329